BAW726 EGLL-LOWW

Flight info

Callsign BAW726
Flight time N/A
Altitude 37000
Route DET L6 DVR UL9 KONAN DCT KOK UL607 FERDI DCT MATUG DCT GUBAX DCT BARSU DCT EKSOS DCT LULAR DCT RUDAP DCT BUDEX BUDEX2W
Aircraft A320/M-SDE3FGHIRWY/LB1

Departure

Time N/A
Airport London Heathrow Airport (EGLL)

Arrival

Time 2026-05-04 19:52
Airport Vienna International Airport (LOWW)
Time Latitude Longitude Altitude Speed Heading
2026-05-04 19:27 48.99916 14.15380 36949 ft 470 kts 115°
2026-05-04 19:28 48.98640 14.19961 36934 ft 470 kts 115°
2026-05-04 19:28 48.96091 14.29100 36380 ft 469 kts 115°
2026-05-04 19:28 48.94670 14.33534 35797 ft 466 kts 123°
2026-05-04 19:29 48.92837 14.37589 35221 ft 463 kts 130°
2026-05-04 19:29 48.90873 14.41468 34629 ft 463 kts 130°
2026-05-04 19:29 48.88915 14.45338 34059 ft 462 kts 130°
2026-05-04 19:29 48.86950 14.49220 33407 ft 462 kts 130°
2026-05-04 19:30 48.84991 14.53095 32664 ft 464 kts 130°
2026-05-04 19:30 48.83019 14.56993 31888 ft 466 kts 130°
2026-05-04 19:30 48.81034 14.60912 31056 ft 469 kts 129°
2026-05-04 19:30 48.79070 14.64782 30118 ft 470 kts 129°
2026-05-04 19:31 48.77064 14.68729 28916 ft 473 kts 129°
2026-05-04 19:31 48.75016 14.72748 27638 ft 476 kts 129°
2026-05-04 19:31 48.73012 14.76663 26381 ft 479 kts 129°
2026-05-04 19:31 48.70931 14.80715 25069 ft 482 kts 129°
2026-05-04 19:32 48.68893 14.84680 23873 ft 484 kts 129°
2026-05-04 19:32 48.66836 14.88687 22882 ft 477 kts 129°
2026-05-04 19:32 48.64822 14.92615 21885 ft 468 kts 129°
2026-05-04 19:32 48.62838 14.96478 20869 ft 461 kts 129°
2026-05-04 19:33 48.60933 15.00322 19917 ft 455 kts 125°
2026-05-04 19:33 48.59360 15.04420 19022 ft 448 kts 117°
2026-05-04 19:33 48.58172 15.08734 18133 ft 442 kts 110°
2026-05-04 19:33 48.57350 15.13188 17300 ft 437 kts 105°
2026-05-04 19:34 48.56598 15.17633 17023 ft 438 kts 106°
2026-05-04 19:34 48.56080 15.20648 16892 ft 438 kts 106°
2026-05-04 19:34 48.55311 15.25080 16815 ft 432 kts 106°
2026-05-04 19:34 48.54566 15.29350 16687 ft 409 kts 106°
2026-05-04 19:35 48.53868 15.33335 16549 ft 387 kts 106°
2026-05-04 19:35 48.53198 15.37160 16418 ft 368 kts 107°
2026-05-04 19:35 48.52554 15.40850 16289 ft 350 kts 107°
2026-05-04 19:35 48.52043 15.44321 16162 ft 336 kts 101°
2026-05-04 19:36 48.51799 15.47760 16038 ft 324 kts 96°
2026-05-04 19:36 48.51619 15.51081 15909 ft 312 kts 97°
2026-05-04 19:36 48.51440 15.54284 15783 ft 301 kts 97°
2026-05-04 19:36 48.51264 15.57380 15654 ft 291 kts 97°
2026-05-04 19:37 48.51093 15.60362 15527 ft 281 kts 97°
2026-05-04 19:37 48.50928 15.63258 15401 ft 272 kts 97°
2026-05-04 19:37 48.50771 15.66050 15239 ft 265 kts 97°
2026-05-04 19:37 48.50614 15.68802 14973 ft 262 kts 98°
2026-05-04 19:38 48.50454 15.71538 14609 ft 265 kts 98°
2026-05-04 19:38 48.50291 15.74306 14248 ft 265 kts 98°
2026-05-04 19:38 48.50127 15.77080 13892 ft 265 kts 98°
2026-05-04 19:38 48.49965 15.79845 13517 ft 265 kts 98°
2026-05-04 19:39 48.49802 15.82605 13119 ft 264 kts 98°
2026-05-04 19:39 48.49639 15.85360 12734 ft 263 kts 98°
2026-05-04 19:39 48.49476 15.88102 12342 ft 262 kts 97°
2026-05-04 19:39 48.49312 15.90833 11962 ft 261 kts 97°
2026-05-04 19:40 48.49144 15.93566 11582 ft 260 kts 97°
2026-05-04 19:40 48.48977 15.96271 11212 ft 259 kts 97°
2026-05-04 19:40 48.48812 15.98971 10845 ft 258 kts 97°
2026-05-04 19:40 48.48651 16.01662 10478 ft 257 kts 96°
2026-05-04 19:41 48.48475 16.04342 10116 ft 255 kts 102°
2026-05-04 19:41 48.47934 16.06868 9754 ft 251 kts 120°
2026-05-04 19:41 48.46935 16.08993 9374 ft 247 kts 137°
2026-05-04 19:41 48.45589 16.10566 8992 ft 244 kts 153°
2026-05-04 19:42 48.44011 16.11483 8602 ft 242 kts 167°
2026-05-04 19:42 48.42382 16.12072 8227 ft 239 kts 167°
2026-05-04 19:42 48.40799 16.12651 7861 ft 235 kts 167°
2026-05-04 19:42 48.39227 16.13231 7483 ft 231 kts 167°
2026-05-04 19:43 48.37679 16.13803 7115 ft 226 kts 167°
2026-05-04 19:43 48.36162 16.14360 6755 ft 222 kts 167°
2026-05-04 19:43 48.34671 16.14905 6387 ft 219 kts 166°
2026-05-04 19:43 48.33206 16.15444 6014 ft 215 kts 166°
2026-05-04 19:44 48.31762 16.15975 5645 ft 212 kts 167°
2026-05-04 19:44 48.30334 16.16499 5281 ft 209 kts 168°
2026-05-04 19:44 48.28950 16.17008 4917 ft 204 kts 168°
2026-05-04 19:44 48.27576 16.17512 4544 ft 202 kts 168°
2026-05-04 19:45 48.26234 16.18005 4244 ft 196 kts 168°
2026-05-04 19:45 48.25115 16.18417 4087 ft 188 kts 169°
2026-05-04 19:45 48.23910 16.18889 4009 ft 187 kts 163°
2026-05-04 19:45 48.22823 16.19875 3976 ft 188 kts 136°
2026-05-04 19:46 48.22219 16.21412 4442 ft 166 kts 113°
2026-05-04 19:46 48.22030 16.23317 3889 ft 199 kts 97°
2026-05-04 19:46 48.21759 16.25274 3942 ft 196 kts 118°
2026-05-04 19:46 48.21196 16.27090 3976 ft 188 kts 123°
2026-05-04 19:47 48.20652 16.28812 3955 ft 179 kts 119°
2026-05-04 19:47 48.20131 16.30500 3699 ft 179 kts 124°
2026-05-04 19:47 48.19524 16.32117 3402 ft 176 kts 126°
2026-05-04 19:47 48.18942 16.33697 3145 ft 168 kts 126°
2026-05-04 19:48 48.18396 16.35229 2798 ft 167 kts 125°
2026-05-04 19:48 48.17851 16.36730 2508 ft 160 kts 127°
2026-05-04 19:48 48.17318 16.38168 2315 ft 158 kts 127°
2026-05-04 19:48 48.16795 16.39609 2076 ft 157 kts 125°
2026-05-04 19:49 48.16281 16.41052 1979 ft 157 kts 123°
2026-05-04 19:49 48.15796 16.42521 1886 ft 155 kts 123°
2026-05-04 19:49 48.15342 16.43929 1811 ft 144 kts 126°
2026-05-04 19:49 48.14946 16.45278 1689 ft 140 kts 126°
2026-05-04 19:50 48.14538 16.46562 1480 ft 133 kts 126°
2026-05-04 19:50 48.14086 16.47788 1236 ft 135 kts 125°
2026-05-04 19:50 48.13623 16.49067 1098 ft 143 kts 120°
2026-05-04 19:50 48.13196 16.50431 1000 ft 147 kts 117°
2026-05-04 19:51 48.12790 16.51782 872 ft 136 kts 118°
2026-05-04 19:51 48.12393 16.52990 680 ft 125 kts 118°
2026-05-04 19:51 48.12035 16.54078 614 ft 106 kts 118°
2026-05-04 19:51 48.11762 16.54913 617 ft 71 kts 116°
2026-05-04 19:52 48.11626 16.55339 620 ft 41 kts 116°
2026-05-04 19:52 48.11523 16.55680 617 ft 17 kts 106°
2026-05-04 19:52 48.11502 16.55876 609 ft 21 kts 93°
2026-05-04 19:52 48.11513 16.56095 612 ft 17 kts 70°
2026-05-04 19:53 48.11550 16.56218 610 ft 12 kts 107°
2026-05-04 19:53 48.11512 16.56339 616 ft 14 kts 115°
2026-05-04 19:53 48.11469 16.56477 619 ft 16 kts 116°
2026-05-04 19:53 48.11489 16.56630 610 ft 17 kts 59°
2026-05-04 19:54 48.11457 16.56794 619 ft 18 kts 116°
2026-05-04 19:54 48.11398 16.56972 615 ft 20 kts 116°
2026-05-04 19:54 48.11335 16.57169 617 ft 22 kts 117°
2026-05-04 19:54 48.11314 16.57233 619 ft 0 kts 117°
2026-05-04 19:55 48.11312 16.57238 621 ft 3 kts 117°
2026-05-04 19:56 48.11304 16.57311 619 ft 11 kts 71°
2026-05-04 19:56 48.11394 16.57386 623 ft 19 kts 15°
2026-05-04 19:56 48.11458 16.57293 623 ft 15 kts 292°
2026-05-04 19:56 48.11515 16.57116 618 ft 23 kts 295°
2026-05-04 19:57 48.11596 16.56863 617 ft 29 kts 296°
2026-05-04 19:57 48.11676 16.56620 622 ft 14 kts 296°
2026-05-04 19:57 48.11723 16.56479 623 ft 16 kts 296°
2026-05-04 19:57 48.11747 16.56321 610 ft 16 kts 236°
2026-05-04 19:58 48.11660 16.56215 615 ft 17 kts 258°
2026-05-04 19:58 48.11704 16.56044 617 ft 19 kts 295°
2026-05-04 19:58 48.11763 16.55861 622 ft 15 kts 303°
2026-05-04 19:58 48.11830 16.55854 617 ft 2 kts 21°
2026-05-04 19:59 48.11831 16.55868 614 ft 2 kts 82°
2026-05-04 19:59 48.11841 16.55893 617 ft 4 kts 46°
2026-05-04 19:59 48.11871 16.55914 622 ft 6 kts 21°
2026-05-04 19:59 48.11908 16.55940 610 ft 0 kts 33°
2026-05-04 20:00 48.11908 16.55942 609 ft 0 kts 49°
2026-05-04 20:00 48.11903 16.55950 620 ft 1 kts 137°
2026-05-04 20:00 48.11870 16.55964 614 ft 4 kts 143°
2026-05-04 20:00 48.11854 16.55995 614 ft 4 kts 126°
2026-05-04 20:01 48.11850 16.56005 613 ft 0 kts 125°